Content
SEND FEEDBACK

Daily
Averages
Monthly
Summary
Turkmenistan

ASHGABAT, TURKMENISTAN


Home > Asia > Turkmenistan
Elevation: 775 feet     Latitude: 37 58N     Longitude: 058 20E

WEATHER
 
SELECT A DAY
Number of Records: 182,617;   Date Range: 3/15/97 - 11/27/14
 
SHARE

PRINT THIS DATA

[ ← Previous Day ]
WEATHER ALMANAC - AUGUST 7, 2014
[ Next Day → ]
[ °C ]   °F
Weather ElementAverageHighLow
Temperature93.1 °F107.6 °F (2:30 pm)73.4 °F (5:00 am)
Dewpoint33.5 °F47 °F (5:00 am)22 °F (2:00 pm)
Humidity14.2 %36 % (5:00 am)4 % (11:00 am)
Barometer29.62 in29.68 in (10:00 pm)29.56 in (2:00 am)
Wind Speed8 mph17.9 mph (3:30 pm)
Weather ElementAverage
Visibility5.4 mi
Wind DirectionESE (103.4 °)

Weather ElementTotal
Precipitation---
Cooling Degree Days25.5 (Base 65)
Growing Degree Days40.5 (Base 50)
Averaged from 44 records on August 7, 2014
WEATHER CONDITIONS BREAKOUT
WIND DIRECTION BREAKOUT
WEATHER BY HOUR - AUGUST 7, 2014
[ °C ]   °F
Local TimeTemperatureDewpointHumidityBarometerVisibilityWind DirectionWind SpeedGust SpeedPrecipitationEventsConditions
12:00 AM87.8 °F32.0 °F14 %29.59 in1.6 miSSW (210°)2.2 mphHaze
1:00 AM82.4 °F37.4 °F20 %29.59 in5.6 miVariable2.2 mphClear
2:00 AM81.0 °F45.0 °F18 %29.59 in6.0 miESE (120°)6.7 mph
2:00 AM80.6 °F37.4 °F21 %29.56 in6.2 miESE (120°)6.7 mphClear
2:30 AM80.6 °F37.4 °F21 %29.56 in3.1 miSSE (160°)2.2 mphHaze
3:00 AM77.0 °F39.2 °F26 %29.56 in3.7 miSE (130°)4.5 mphClear
4:00 AM78.8 °F42.8 °F28 %29.56 in3.1 miVariable2.2 mphHaze
4:30 AM78.8 °F41.0 °F26 %29.59 in2.2 miVariable2.2 mphHaze
5:00 AM77.0 °F47.0 °F24 %29.60 in6.0 miSSE (160°)4.5 mph
5:00 AM75.2 °F46.4 °F36 %29.59 in4.3 miENE (70°)4.5 mphClear
5:30 AM75.2 °F42.8 °F31 %29.59 in4.3 miVariable2.2 mphClear
6:00 AM73.4 °F42.8 °F33 %29.59 in3.1 miSouth (180°)6.7 mphHaze
6:30 AM75.2 °F44.6 °F34 %29.59 in3.7 miSouth (180°)4.5 mphClear
7:00 AM77.0 °F42.8 °F29 %29.59 in5.6 miSSE (160°)4.5 mphClear
7:30 AM80.6 °F41.0 °F24 %29.59 in5.6 miVariable2.2 mphClear
8:00 AM82.0 °F47.0 °F19 %29.61 in6.0 miWest (270°)2.2 mph
8:00 AM84.2 °F39.2 °F20 %29.62 in6.2 miVariable2.2 mphClear
9:00 AM93.2 °F35.6 °F13 %29.62 in6.2 miNE (40°)4.5 mphClear
10:00 AM95.0 °F37.4 °F13 %29.65 in6.2 miEast (100°)8.9 mphClear
11:00 AM99.0 °F31.0 °F4 %29.63 in6.0 miESE (120°)15.7 mph
11:00 AM100.4 °F32.0 °F9 %29.65 in6.2 miESE (120°)13.4 mphClear
12:00 PM104.0 °F26.6 °F7 %29.65 in6.2 miEast (90°)17.9 mphClear
12:30 PM104.0 °F24.8 °F6 %29.65 in6.2 miEast (90°)15.7 mphClear
1:00 PM105.8 °F24.8 °F6 %29.65 in6.2 miEast (80°)17.9 mphClear
1:30 PM105.8 °F24.8 °F6 %29.65 in6.2 miEast (90°)15.7 mphClear
2:00 PM105.0 °F22.0 °F4 %29.62 in6.0 miEast (90°)15.7 mph
2:00 PM105.8 °F26.6 °F6 %29.65 in6.2 miEast (90°)13.4 mphClear
2:30 PM107.6 °F26.6 °F6 %29.65 in6.2 miEast (90°)13.4 mphClear
3:00 PM105.8 °F26.6 °F6 %29.65 in6.2 miSE (130°)11.2 mphClear
3:30 PM105.8 °F24.8 °F6 %29.62 in6.2 miESE (120°)13.4 mphClear
4:00 PM105.8 °F24.8 °F6 %29.62 in6.2 miESE (110°)11.2 mphClear
4:30 PM105.8 °F24.8 °F6 %29.62 in6.2 miESE (120°)11.2 mphClear
5:00 PM105.8 °F24.8 °F6 %29.62 in6.2 miEast (100°)8.9 mphClear
5:00 PM106.0 °F25.0 °F4 %29.62 in6.0 miESE (110°)8.9 mph
5:30 PM105.8 °F24.8 °F6 %29.62 in6.2 miESE (120°)8.9 mphClear
6:00 PM105.8 °F26.6 °F6 %29.62 in6.2 miEast (100°)8.9 mphClear
6:30 PM105.8 °F24.8 °F6 %29.62 in6.2 miSE (130°)11.2 mphClear
7:00 PM104.0 °F26.6 °F7 %29.65 in6.2 miESE (120°)8.9 mphClear
8:00 PM98.6 °F32.0 °F10 %29.65 in6.2 miSSE (150°)4.5 mphClear
8:00 PM103.0 °F34.0 °F4 %29.62 in6.0 miSSE (150°)4.5 mph
9:00 PM95.0 °F33.8 °F12 %29.65 in3.7 miVariable2.2 mphClear
10:00 PM91.4 °F37.4 °F15 %29.68 inEast (90°)6.7 mphHaze
11:00 PM90.0 °F37.0 °F8 %29.68 in6.0 miESE (120°)8.9 mph
11:00 PM87.8 °F30.2 °F13 %29.68 in6.2 miESE (120°)8.9 mphClear
Hourly data recorded from UTAA, located miles away from Ashgabat, Turkmenistan







STORIES FROM OUR PARTNERS